| time (UTC) | temp F | wind direction | speed MPH | gust MPH | rain 1hr in | rain 24hr in | rain mn in | humidity % | barometer mb |
| 20260510093110 | 51 | 360 | 0.0 | 2.0 | 0.00 | 0.38 | 0.00 | 100 | 1012.6 |
| 20260510092555 | 51 | 99 | 0.0 | 2.0 | 0.00 | 0.38 | 0.00 | 100 | 1012.6 |
| 20260510092045 | 50 | 98 | 0.0 | 2.0 | 0.00 | 0.38 | 0.00 | 100 | 1012.4 |
| 20260510091517 | 50 | 22 | 0.0 | 2.0 | 0.00 | 0.38 | 0.00 | 100 | 1012.2 |
| 20260510091036 | 50 | 360 | 0.0 | 1.0 | 0.00 | 0.38 | 0.00 | 100 | 1012.2 |
| 20260510090559 | 50 | 360 | 0.0 | 2.0 | 0.00 | 0.38 | 0.00 | 100 | 1012.3 |
| 20260510090040 | 50 | 360 | 0.0 | 2.0 | 0.00 | 0.38 | 0.00 | 100 | 1012.5 |
| 20260510085505 | 50 | 120 | 0.0 | 1.0 | 0.00 | 0.38 | 0.00 | 100 | 1012.6 |
| 20260510085038 | 50 | 121 | 0.0 | 2.0 | 0.00 | 0.38 | 0.00 | 100 | 1012.5 |
| 20260510084614 | 50 | 360 | 0.0 | 2.0 | 0.00 | 0.38 | 0.00 | 100 | 1012.6 |
| 20260510084020 | 50 | 360 | 0.0 | 4.0 | 0.00 | 0.38 | 0.00 | 100 | 1012.7 |
| 20260510083601 | 50 | 360 | 0.0 | 4.0 | 0.00 | 0.38 | 0.00 | 100 | 1012.7 |
| 20260510083020 | 50 | 276 | 0.0 | 2.0 | 0.00 | 0.38 | 0.00 | 100 | 1012.6 |
| 20260510082532 | 50 | 288 | 0.0 | 4.0 | 0.00 | 0.38 | 0.00 | 100 | 1012.7 |
| 20260510082053 | 50 | 344 | 1.0 | 4.0 | 0.00 | 0.38 | 0.00 | 100 | 1012.5 |
| 20260510081522 | 50 | 294 | 1.0 | 4.0 | 0.00 | 0.38 | 0.00 | 100 | 1012.5 |
| 20260510081042 | 50 | 105 | 1.0 | 4.0 | 0.00 | 0.38 | 0.00 | 100 | 1012.5 |
| 20260510080516 | 50 | 336 | 1.0 | 10.0 | 0.00 | 0.38 | 0.00 | 100 | 1012.5 |
| 20260510080041 | 50 | 234 | 0.0 | 10.0 | 0.00 | 0.38 | 0.00 | 100 | 1012.6 |
| 20260510075525 | 49 | 350 | 1.0 | 8.0 | 0.00 | 0.38 | 0.00 | 100 | 1012.4 |
| 20260510075053 | 49 | 283 | 2.0 | 8.0 | 0.00 | 0.38 | 0.00 | 100 | 1012.6 |
| 20260510074504 | 49 | 360 | 2.0 | 8.0 | 0.00 | 0.38 | 0.00 | 100 | 1012.4 |
| 20260510074023 | 49 | 304 | 2.0 | 5.0 | 0.00 | 0.38 | 0.00 | 100 | 1012.1 |
| 20260510073544 | 49 | 321 | 0.0 | 0.0 | 0.00 | 0.38 | 0.00 | 100 | 1011.9 |
| 20260510073106 | 49 | 320 | 0.0 | 0.0 | 0.00 | 0.38 | 0.00 | 100 | 1011.9 |
| 20260510072520 | 49 | 321 | 0.0 | 0.0 | 0.00 | 0.38 | 0.00 | 100 | 1011.9 |
| 20260510072102 | 49 | 320 | 0.0 | 0.0 | 0.00 | 0.38 | 0.00 | 100 | 1011.9 |
| 20260510071538 | 48 | 320 | 0.0 | 0.0 | 0.00 | 0.38 | 0.00 | 100 | 1011.9 |
| 20260510071051 | 48 | 321 | 0.0 | 0.0 | 0.00 | 0.38 | 0.00 | 100 | 1011.9 |
| 20260510070527 | 48 | 320 | 0.0 | 1.0 | 0.00 | 0.38 | 0.00 | 100 | 1011.9 |
| 20260510070109 | 48 | 321 | 0.0 | 1.0 | 0.00 | 0.38 | 0.00 | 100 | 1011.9 |
| 20260510065518 | 48 | 320 | 0.0 | 1.0 | 0.00 | 0.38 | 0.00 | 100 | 1012.0 |
| 20260510065038 | 48 | 312 | 0.0 | 2.0 | 0.00 | 0.38 | 0.00 | 100 | 1012.0 |
| 20260510064558 | 48 | 312 | 0.0 | 3.0 | 0.00 | 0.38 | 0.00 | 100 | 1012.1 |
| 20260510064023 | 48 | 11 | 0.0 | 5.0 | 0.00 | 0.38 | 0.00 | 100 | 1012.0 |
| 20260510063544 | 48 | 309 | 1.0 | 7.0 | 0.00 | 0.38 | 0.00 | 100 | 1012.1 |
| 20260510063104 | 48 | 360 | 2.0 | 7.0 | 0.00 | 0.38 | 0.00 | 100 | 1012.2 |
| 20260510062540 | 48 | 292 | 0.0 | 2.0 | 0.00 | 0.38 | 0.00 | 99 | 1012.1 |
| 20260510062011 | 48 | 24 | 0.0 | 0.0 | 0.00 | 0.38 | 0.00 | 99 | 1012.1 |
| 20260510061528 | 48 | 22 | 0.0 | 0.0 | 0.00 | 0.38 | 0.00 | 99 | 1012.1 |
| 20260510061016 | 48 | 23 | 0.0 | 0.0 | 0.00 | 0.38 | 0.00 | 99 | 1011.9 |
| 20260510060546 | 48 | 22 | 0.0 | 0.0 | 0.00 | 0.38 | 0.00 | 99 | 1011.8 |
| 20260510060106 | 48 | 23 | 0.0 | 0.0 | 0.00 | 0.38 | 0.00 | 99 | 1011.7 |
| 20260510055519 | 48 | 20 | 0.0 | 0.0 | 0.00 | 0.38 | 0.00 | 99 | 1011.7 |
| 20260510055035 | 49 | 21 | 0.0 | 0.0 | 0.00 | 0.38 | 0.00 | 99 | 1011.8 |
| 20260510054556 | 49 | 22 | 0.0 | 0.0 | 0.00 | 0.38 | 0.00 | 99 | 1011.8 |
| 20260510054006 | 49 | 360 | 0.0 | 0.0 | 0.00 | 0.38 | 0.00 | 99 | 1011.9 |
| 20260510053525 | 49 | 360 | 0.0 | 0.0 | 0.00 | 0.38 | 0.00 | 99 | 1011.9 |
| 20260510053046 | 49 | 27 | 0.0 | 0.0 | 0.00 | 0.38 | 0.00 | 99 | 1011.9 |
| 20260510052606 | 49 | 28 | 0.0 | 0.0 | 0.00 | 0.38 | 0.00 | 99 | 1012.0 |
| 20260510052016 | 49 | 91 | 0.0 | 0.0 | 0.00 | 0.38 | 0.00 | 99 | 1011.9 |
| 20260510051540 | 49 | 122 | 0.0 | 0.0 | 0.00 | 0.38 | 0.00 | 99 | 1012.0 |
| 20260510051055 | 49 | 360 | 0.0 | 0.0 | 0.00 | 0.38 | 0.00 | 99 | 1011.9 |
| 20260510050506 | 50 | 360 | 0.0 | 0.0 | 0.00 | 0.38 | 0.00 | 99 | 1012.0 |
| 20260510050031 | 50 | 123 | 0.0 | 0.0 | 0.00 | 0.38 | 0.00 | 99 | 1012.0 |
| 20260510045511 | 50 | 121 | 0.0 | 0.0 | 0.00 | 0.38 | 0.00 | 99 | 1012.0 |
| 20260510045046 | 50 | 121 | 0.0 | 0.0 | 0.00 | 0.38 | 0.00 | 99 | 1012.1 |
| 20260510044528 | 50 | 121 | 0.0 | 0.0 | 0.00 | 0.38 | 0.00 | 99 | 1012.1 |
| 20260510044043 | 50 | 121 | 0.0 | 0.0 | 0.00 | 0.38 | 0.00 | 99 | 1012.1 |
| 20260510043502 | 50 | 123 | 0.0 | 0.0 | 0.00 | 0.38 | 0.00 | 99 | 1012.2 |
| 20260510043022 | 50 | 121 | 0.0 | 0.0 | 0.00 | 0.38 | 0.00 | 99 | 1012.2 |
| 20260510042608 | 50 | 121 | 0.0 | 0.0 | 0.00 | 0.38 | 0.00 | 99 | 1012.2 |
| 20260510042022 | 50 | 121 | 0.0 | 0.0 | 0.00 | 0.38 | 0.00 | 99 | 1012.2 |
| 20260510041550 | 50 | 122 | 0.0 | 0.0 | 0.00 | 0.38 | 0.00 | 99 | 1012.2 |
| 20260510041010 | 50 | 122 | 0.0 | 0.0 | 0.00 | 0.38 | 0.00 | 99 | 1012.2 |
| 20260510040538 | 50 | 121 | 0.0 | 0.0 | 0.00 | 0.38 | 0.00 | 99 | 1012.2 |
| 20260510035540 | 50 | 121 | 0.0 | 0.0 | 0.00 | 0.38 | 0.38 | 99 | 1012.3 |
| 20260510035100 | 50 | 122 | 0.0 | 0.0 | 0.00 | 0.38 | 0.38 | 99 | 1012.3 |
| 20260510034515 | 50 | 120 | 0.0 | 0.0 | 0.00 | 0.38 | 0.38 | 99 | 1012.2 |
| 20260510034006 | 50 | 121 | 0.0 | 0.0 | 0.00 | 0.38 | 0.38 | 99 | 1012.1 |
| 20260510033525 | 50 | 121 | 0.0 | 0.0 | 0.00 | 0.38 | 0.38 | 99 | 1012.1 |
| 20260510033139 | 50 | 123 | 0.0 | 0.0 | 0.00 | 0.38 | 0.38 | 99 | 1012.0 |
| 20260510032515 | 50 | 122 | 0.0 | 0.0 | 0.00 | 0.38 | 0.38 | 99 | 1012.1 |
| 20260510032051 | 49 | 360 | 0.0 | 0.0 | 0.00 | 0.38 | 0.38 | 99 | 1012.1 |
| 20260510031525 | 49 | 360 | 0.0 | 0.0 | 0.00 | 0.38 | 0.38 | 99 | 1012.0 |
| 20260510031002 | 49 | 360 | 0.0 | 0.0 | 0.00 | 0.38 | 0.38 | 99 | 1011.9 |
| 20260510030548 | 49 | 360 | 0.0 | 0.0 | 0.00 | 0.38 | 0.38 | 99 | 1011.9 |
| 20260510030108 | 49 | 121 | 0.0 | 0.0 | 0.00 | 0.38 | 0.38 | 99 | 1011.8 |
| 20260510025518 | 49 | 121 | 0.0 | 0.0 | 0.00 | 0.38 | 0.38 | 98 | 1011.9 |
| 20260510025038 | 49 | 122 | 0.0 | 0.0 | 0.00 | 0.38 | 0.38 | 98 | 1011.9 |
| 20260510024557 | 49 | 122 | 0.0 | 0.0 | 0.00 | 0.38 | 0.38 | 98 | 1011.9 |
| 20260510024007 | 49 | 360 | 0.0 | 0.0 | 0.00 | 0.38 | 0.38 | 99 | 1011.8 |
| 20260510023552 | 49 | 123 | 0.0 | 0.0 | 0.00 | 0.38 | 0.38 | 99 | 1011.8 |
| 20260510023026 | 49 | 360 | 0.0 | 0.0 | 0.00 | 0.38 | 0.38 | 98 | 1011.7 |
| 20260510022546 | 49 | 122 | 0.0 | 0.0 | 0.00 | 0.38 | 0.38 | 98 | 1011.7 |
| 20260510022107 | 49 | 122 | 0.0 | 0.0 | 0.00 | 0.38 | 0.38 | 98 | 1011.8 |
| 20260510021540 | 49 | 121 | 0.0 | 0.0 | 0.00 | 0.38 | 0.38 | 97 | 1011.8 |
| 20260510021100 | 49 | 121 | 0.0 | 0.0 | 0.00 | 0.38 | 0.38 | 97 | 1011.8 |
| 20260510020516 | 49 | 122 | 0.0 | 0.0 | 0.00 | 0.38 | 0.38 | 97 | 1011.7 |
| 20260510020030 | 49 | 121 | 0.0 | 0.0 | 0.00 | 0.38 | 0.38 | 97 | 1011.7 |
| 20260510015550 | 49 | 360 | 0.0 | 0.0 | 0.00 | 0.38 | 0.38 | 97 | 1011.8 |
| 20260510015109 | 49 | 360 | 0.0 | 0.0 | 0.00 | 0.38 | 0.38 | 97 | 1011.7 |
| 20260510014522 | 50 | 121 | 0.0 | 0.0 | 0.00 | 0.38 | 0.38 | 97 | 1011.8 |
| 20260510014101 | 50 | 360 | 0.0 | 1.0 | 0.00 | 0.38 | 0.38 | 97 | 1011.6 |
| 20260510013510 | 50 | 121 | 0.0 | 1.0 | 0.00 | 0.38 | 0.38 | 97 | 1011.7 |
| 20260510013045 | 50 | 360 | 0.0 | 0.0 | 0.00 | 0.38 | 0.38 | 97 | 1011.7 |
| 20260510012504 | 51 | 122 | 0.0 | 0.0 | 0.00 | 0.38 | 0.38 | 97 | 1011.6 |
| 20260510012026 | 51 | 360 | 0.0 | 0.0 | 0.00 | 0.38 | 0.38 | 97 | 1011.6 |
| 20260510011545 | 51 | 360 | 0.0 | 0.0 | 0.00 | 0.38 | 0.38 | 96 | 1011.7 |
| 20260510011017 | 51 | 122 | 0.0 | 0.0 | 0.00 | 0.38 | 0.38 | 96 | 1011.6 |
| 20260510010537 | 51 | 360 | 0.0 | 0.0 | 0.00 | 0.38 | 0.38 | 97 | 1011.5 |
| 20260510010104 | 52 | 122 | 0.0 | 1.0 | 0.00 | 0.38 | 0.38 | 96 | 1011.5 |
| 20260510005533 | 52 | 121 | 0.0 | 1.0 | 0.00 | 0.38 | 0.38 | 96 | 1011.4 |
| 20260510005052 | 52 | 360 | 0.0 | 2.0 | 0.00 | 0.38 | 0.38 | 96 | 1011.4 |
| 20260510004502 | 52 | 121 | 0.0 | 2.0 | 0.00 | 0.38 | 0.38 | 96 | 1011.3 |
| 20260510004023 | 53 | 121 | 0.0 | 0.0 | 0.00 | 0.38 | 0.38 | 96 | 1011.3 |
| 20260510003602 | 53 | 120 | 0.0 | 0.0 | 0.00 | 0.38 | 0.38 | 96 | 1011.3 |
| 20260510003018 | 53 | 360 | 0.0 | 0.0 | 0.00 | 0.38 | 0.38 | 96 | 1011.2 |
| 20260510002557 | 53 | 360 | 0.0 | 0.0 | 0.00 | 0.38 | 0.38 | 96 | 1011.2 |
| 20260510002005 | 54 | 121 | 0.0 | 0.0 | 0.00 | 0.38 | 0.38 | 96 | 1011.1 |
| 20260510001528 | 54 | 360 | 0.0 | 0.0 | 0.00 | 0.38 | 0.38 | 96 | 1011.1 |
| 20260510001002 | 54 | 360 | 0.0 | 0.0 | 0.00 | 0.38 | 0.38 | 96 | 1011.1 |
| 20260510000522 | 54 | 360 | 0.0 | 0.0 | 0.00 | 0.38 | 0.38 | 96 | 1011.0 |
| 20260510000100 | 54 | 360 | 0.0 | 2.0 | 0.00 | 0.38 | 0.38 | 95 | 1010.9 |
| 20260509235603 | 55 | 122 | 0.0 | 2.0 | 0.00 | 0.38 | 0.38 | 95 | 1010.8 |
| 20260509235046 | 55 | 360 | 0.0 | 1.0 | 0.00 | 0.38 | 0.38 | 95 | 1011.0 |
| 20260509234506 | 55 | 128 | 0.0 | 3.0 | 0.00 | 0.38 | 0.38 | 95 | 1011.1 |
| 20260509234026 | 55 | 105 | 0.0 | 6.0 | 0.00 | 0.38 | 0.38 | 95 | 1011.0 |
| 20260509233548 | 55 | 116 | 2.0 | 6.0 | 0.00 | 0.38 | 0.38 | 95 | 1011.0 |
| 20260509233001 | 55 | 360 | 0.0 | 2.0 | 0.00 | 0.38 | 0.38 | 95 | 1011.0 |
| 20260509232525 | 55 | 119 | 0.0 | 0.0 | 0.00 | 0.38 | 0.38 | 95 | 1010.9 |
| 20260509232042 | 55 | 120 | 0.0 | 0.0 | 0.00 | 0.38 | 0.38 | 95 | 1011.0 |
| 20260509231604 | 55 | 120 | 0.0 | 1.0 | 0.00 | 0.38 | 0.38 | 95 | 1010.9 |
| 20260509231027 | 55 | 360 | 0.0 | 1.0 | 0.00 | 0.38 | 0.38 | 95 | 1011.0 |
| 20260509230516 | 55 | 119 | 0.0 | 3.0 | 0.00 | 0.38 | 0.38 | 95 | 1010.9 |
| 20260509230100 | 56 | 121 | 1.0 | 3.0 | 0.00 | 0.38 | 0.38 | 95 | 1010.8 |
| 20260509225520 | 56 | 93 | 0.0 | 2.0 | 0.00 | 0.38 | 0.38 | 95 | 1010.7 |
| 20260509225054 | 56 | 122 | 0.0 | 2.0 | 0.00 | 0.38 | 0.38 | 95 | 1010.8 |
| 20260509224538 | 56 | 122 | 0.0 | 2.0 | 0.00 | 0.38 | 0.38 | 95 | 1010.9 |
| 20260509224103 | 56 | 122 | 0.0 | 3.0 | 0.00 | 0.38 | 0.38 | 95 | 1011.0 |
| 20260509223512 | 56 | 123 | 1.0 | 3.0 | 0.00 | 0.38 | 0.38 | 94 | 1011.0 |
| 20260509223039 | 56 | 113 | 1.0 | 6.0 | 0.00 | 0.38 | 0.38 | 95 | 1011.0 |
| 20260509222607 | 56 | 123 | 2.0 | 6.0 | 0.00 | 0.38 | 0.38 | 95 | 1011.0 |
| 20260509222023 | 57 | 129 | 2.0 | 4.0 | 0.00 | 0.38 | 0.38 | 95 | 1011.0 |
| 20260509221508 | 57 | 130 | 0.0 | 4.0 | 0.00 | 0.38 | 0.38 | 95 | 1010.9 |
| 20260509221055 | 57 | 131 | 1.0 | 3.0 | 0.00 | 0.38 | 0.38 | 94 | 1010.9 |
| 20260509220528 | 57 | 126 | 0.0 | 2.0 | 0.00 | 0.38 | 0.38 | 95 | 1010.7 |
| 20260509220022 | 57 | 122 | 0.0 | 2.0 | 0.00 | 0.38 | 0.38 | 95 | 1010.8 |
| 20260509215511 | 57 | 130 | 0.0 | 2.0 | 0.00 | 0.38 | 0.38 | 95 | 1010.6 |
| 20260509215058 | 57 | 130 | 0.0 | 2.0 | 0.00 | 0.38 | 0.38 | 95 | 1010.7 |
| 20260509214536 | 57 | 130 | 0.0 | 2.0 | 0.00 | 0.38 | 0.38 | 95 | 1010.8 |
| 20260509214013 | 56 | 274 | 0.0 | 2.0 | 0.00 | 0.38 | 0.38 | 95 | 1010.9 |
| 20260509213541 | 56 | 360 | 0.0 | 2.0 | 0.00 | 0.38 | 0.38 | 95 | 1010.9 |
| 20260509213029 | 56 | 25 | 0.0 | 2.0 | 0.00 | 0.38 | 0.38 | 96 | 1010.7 |
| 20260509212504 | 56 | 130 | 1.0 | 3.0 | 0.00 | 0.38 | 0.38 | 97 | 1010.9 |
| 20260509212046 | 56 | 157 | 0.0 | 3.0 | 0.00 | 0.38 | 0.38 | 96 | 1011.0 |
| 20260509211507 | 56 | 96 | 0.0 | 2.0 | 0.00 | 0.38 | 0.38 | 97 | 1011.1 |
| 20260509211051 | 56 | 64 | 0.0 | 3.0 | 0.00 | 0.38 | 0.38 | 98 | 1011.0 |
| 20260509210510 | 55 | 299 | 1.0 | 5.0 | 0.01 | 0.38 | 0.38 | 97 | 1011.0 |
| 20260509210041 | 55 | 326 | 1.0 | 5.0 | 0.02 | 0.38 | 0.38 | 97 | 1011.0 |
| 20260509205508 | 55 | 322 | 0.0 | 3.0 | 0.03 | 0.38 | 0.38 | 98 | 1010.9 |
| 20260509205032 | 55 | 294 | 0.0 | 3.0 | 0.03 | 0.38 | 0.38 | 98 | 1011.1 |
| 20260509204557 | 55 | 184 | 0.0 | 2.0 | 0.04 | 0.38 | 0.38 | 98 | 1011.0 |
| 20260509204031 | 54 | 299 | 0.0 | 2.0 | 0.05 | 0.38 | 0.38 | 98 | 1011.0 |
| 20260509203500 | 54 | 360 | 0.0 | 2.0 | 0.05 | 0.38 | 0.38 | 98 | 1011.1 |
| 20260509203046 | 54 | 360 | 0.0 | 2.0 | 0.05 | 0.38 | 0.38 | 98 | 1011.1 |
| 20260509202514 | 54 | 360 | 1.0 | 2.0 | 0.08 | 0.38 | 0.38 | 98 | 1011.1 |
| 20260509202051 | 54 | 360 | 0.0 | 1.0 | 0.08 | 0.38 | 0.38 | 97 | 1011.1 |
| 20260509201519 | 53 | 360 | 0.0 | 1.0 | 0.08 | 0.38 | 0.38 | 97 | 1011.0 |
| 20260509201039 | 53 | 360 | 0.0 | 1.0 | 0.07 | 0.37 | 0.37 | 97 | 1011.1 |
| 20260509200514 | 53 | 360 | 0.0 | 0.0 | 0.08 | 0.37 | 0.37 | 97 | 1011.1 |
| 20260509200111 | 53 | 360 | 0.0 | 0.0 | 0.10 | 0.37 | 0.37 | 97 | 1011.2 |
| 20260509195556 | 54 | 360 | 0.0 | 0.0 | 0.09 | 0.35 | 0.35 | 97 | 1011.3 |
| 20260509195027 | 54 | 360 | 0.0 | 1.0 | 0.10 | 0.35 | 0.35 | 97 | 1011.3 |
| 20260509194552 | 54 | 360 | 0.0 | 1.0 | 0.09 | 0.34 | 0.34 | 97 | 1011.4 |
| 20260509194021 | 54 | 360 | 0.0 | 2.0 | 0.09 | 0.33 | 0.33 | 96 | 1011.5 |
| 20260509193541 | 54 | 360 | 0.0 | 2.0 | 0.09 | 0.33 | 0.33 | 97 | 1011.6 |
| 20260509193014 | 54 | 360 | 0.0 | 2.0 | 0.08 | 0.32 | 0.32 | 97 | 1011.8 |
| 20260509192557 | 54 | 360 | 0.0 | 3.0 | 0.07 | 0.31 | 0.31 | 97 | 1011.9 |
| 20260509192032 | 54 | 360 | 0.0 | 3.0 | 0.07 | 0.30 | 0.30 | 97 | 1011.9 |
| 20260509191550 | 54 | 360 | 0.0 | 3.0 | 0.08 | 0.30 | 0.30 | 97 | 1012.1 |
| 20260509191013 | 54 | 360 | 0.0 | 3.0 | 0.10 | 0.30 | 0.30 | 97 | 1012.1 |
| 20260509190540 | 54 | 360 | 0.0 | 1.0 | 0.11 | 0.28 | 0.28 | 97 | 1012.2 |
| 20260509190006 | 54 | 360 | 0.0 | 4.0 | 0.11 | 0.27 | 0.27 | 96 | 1012.2 |
| 20260509185535 | 54 | 360 | 0.0 | 5.0 | 0.12 | 0.26 | 0.26 | 96 | 1012.3 |
| 20260509185055 | 54 | 360 | 1.0 | 5.0 | 0.13 | 0.25 | 0.25 | 96 | 1012.3 |
| 20260509184504 | 54 | 331 | 0.0 | 3.0 | 0.14 | 0.25 | 0.25 | 96 | 1012.3 |
| 20260509184024 | 54 | 360 | 1.0 | 3.0 | 0.14 | 0.24 | 0.24 | 96 | 1012.4 |
| 20260509183550 | 54 | 360 | 0.0 | 3.0 | 0.15 | 0.24 | 0.24 | 96 | 1012.4 |
| 20260509183019 | 55 | 360 | 0.0 | 2.0 | 0.17 | 0.24 | 0.24 | 96 | 1012.4 |
| 20260509182539 | 55 | 360 | 0.0 | 3.0 | 0.18 | 0.24 | 0.24 | 96 | 1012.5 |
| 20260509182059 | 55 | 360 | 0.0 | 3.0 | 0.18 | 0.23 | 0.23 | 96 | 1012.6 |
| 20260509181509 | 55 | 252 | 0.0 | 3.0 | 0.17 | 0.21 | 0.21 | 96 | 1012.6 |
| 20260509181053 | 55 | 5 | 1.0 | 3.0 | 0.16 | 0.20 | 0.20 | 96 | 1012.6 |
| 20260509180503 | 55 | 29 | 0.0 | 2.0 | 0.15 | 0.18 | 0.18 | 96 | 1012.8 |
| 20260509180025 | 56 | 29 | 0.0 | 2.0 | 0.12 | 0.15 | 0.15 | 96 | 1012.8 |
| 20260509175013 | 56 | 335 | 0.0 | 2.0 | 0.10 | 0.12 | 0.12 | 95 | 1012.4 |
| 20260509174539 | 56 | 229 | 0.0 | 2.0 | 0.09 | 0.11 | 0.11 | 95 | 1012.5 |
| 20260509174005 | 56 | 285 | 0.0 | 1.0 | 0.09 | 0.10 | 0.10 | 94 | 1012.4 |
| 20260509173541 | 56 | 285 | 0.0 | 2.0 | 0.08 | 0.09 | 0.09 | 94 | 1012.4 |
| 20260509173109 | 56 | 285 | 0.0 | 2.0 | 0.08 | 0.08 | 0.08 | 94 | 1012.4 |
| 20260509172541 | 56 | 325 | 0.0 | 1.0 | 0.06 | 0.06 | 0.06 | 93 | 1012.3 |
| 20260509172015 | 56 | 325 | 0.0 | 0.0 | 0.05 | 0.05 | 0.05 | 93 | 1012.2 |
| 20260509171536 | 56 | 325 | 0.0 | 0.0 | 0.04 | 0.04 | 0.04 | 92 | 1012.3 |
| 20260509171054 | 56 | 325 | 0.0 | 2.0 | 0.04 | 0.04 | 0.04 | 92 | 1012.2 |
| 20260509170505 | 56 | 325 | 0.0 | 2.0 | 0.03 | 0.03 | 0.03 | 91 | 1012.3 |
| 20260509170045 | 57 | 250 | 0.0 | 0.0 | 0.03 | 0.03 | 0.03 | 92 | 1012.4 |
| 20260509165509 | 57 | 250 | 0.0 | 2.0 | 0.02 | 0.02 | 0.02 | 91 | 1012.6 |
| 20260509165038 | 57 | 250 | 0.0 | 2.0 | 0.02 | 0.02 | 0.02 | 91 | 1012.5 |
| 20260509164558 | 57 | 192 | 0.0 | 2.0 | 0.02 | 0.02 | 0.02 | 90 | 1012.5 |
| 20260509164009 | 57 | 192 | 0.0 | 3.0 | 0.01 | 0.01 | 0.01 | 89 | 1012.6 |
| 20260509163534 | 57 | 192 | 1.0 | 3.0 | 0.01 | 0.01 | 0.01 | 88 | 1012.6 |
| 20260509163022 | 58 | 169 | 1.0 | 3.0 | 0.00 | 0.00 | 0.00 | 87 | 1012.7 |
| 20260509162550 | 58 | 219 | 1.0 | 4.0 | 0.00 | 0.00 | 0.00 | 86 | 1012.6 |
| 20260509162107 | 58 | 242 | 1.0 | 4.0 | 0.00 | 0.00 | 0.00 | 86 | 1012.6 |
| 20260509161517 | 58 | 232 | 0.0 | 3.0 | 0.00 | 0.00 | 0.00 | 85 | 1012.5 |
| 20260509161036 | 59 | 159 | 1.0 | 4.0 | 0.00 | 0.00 | 0.00 | 85 | 1012.6 |
| 20260509160511 | 59 | 234 | 2.0 | 4.0 | 0.00 | 0.00 | 0.00 | 83 | 1012.7 |
| 20260509160056 | 59 | 189 | 1.0 | 5.0 | 0.00 | 0.00 | 0.00 | 83 | 1012.9 |
| 20260509155535 | 59 | 232 | 2.0 | 4.0 | 0.00 | 0.00 | 0.00 | 83 | 1013.0 |
| 20260509155107 | 59 | 215 | 2.0 | 5.0 | 0.00 | 0.00 | 0.00 | 82 | 1012.8 |
| 20260509154517 | 59 | 238 | 2.0 | 7.0 | 0.00 | 0.00 | 0.00 | 82 | 1012.8 |
| 20260509154056 | 59 | 202 | 2.0 | 7.0 | 0.00 | 0.00 | 0.00 | 83 | 1012.9 |
| 20260509153533 | 59 | 230 | 2.0 | 7.0 | 0.00 | 0.00 | 0.00 | 82 | 1013.0 |
| 20260509153053 | 59 | 217 | 3.0 | 7.0 | 0.00 | 0.00 | 0.00 | 81 | 1013.0 |
| 20260509152502 | 59 | 247 | 2.0 | 5.0 | 0.00 | 0.00 | 0.00 | 82 | 1012.9 |
| 20260509152031 | 59 | 246 | 2.0 | 5.0 | 0.00 | 0.00 | 0.00 | 83 | 1012.9 |
| 20260509151541 | 59 | 175 | 2.0 | 5.0 | 0.00 | 0.00 | 0.00 | 84 | 1012.9 |
| 20260509151100 | 59 | 175 | 2.0 | 5.0 | 0.00 | 0.00 | 0.00 | 84 | 1012.9 |
| 20260509150535 | 59 | 238 | 1.0 | 4.0 | 0.00 | 0.00 | 0.00 | 83 | 1013.0 |
| 20260509145529 | 58 | 159 | 0.0 | 3.0 | 0.00 | 0.00 | 0.00 | 84 | 1012.7 |
| 20260509145049 | 58 | 199 | 1.0 | 3.0 | 0.00 | 0.00 | 0.00 | 84 | 1012.8 |
| 20260509144612 | 58 | 197 | 2.0 | 3.0 | 0.00 | 0.00 | 0.00 | 84 | 1012.8 |
| 20260509144021 | 58 | 219 | 1.0 | 3.0 | 0.00 | 0.00 | 0.00 | 85 | 1012.9 |
| 20260509143539 | 58 | 202 | 2.0 | 4.0 | 0.00 | 0.00 | 0.00 | 86 | 1012.9 |
| 20260509143129 | 58 | 197 | 2.0 | 4.0 | 0.00 | 0.00 | 0.00 | 86 | 1012.8 |
| 20260509142515 | 57 | 175 | 2.0 | 6.0 | 0.00 | 0.00 | 0.00 | 86 | 1012.7 |
| 20260509142055 | 57 | 186 | 2.0 | 6.0 | 0.00 | 0.00 | 0.00 | 86 | 1012.7 |
| 20260509141503 | 57 | 175 | 1.0 | 4.0 | 0.00 | 0.00 | 0.00 | 86 | 1012.6 |
| 20260509141023 | 57 | 194 | 2.0 | 4.0 | 0.00 | 0.00 | 0.00 | 86 | 1012.6 |
| 20260509140543 | 57 | 200 | 2.0 | 4.0 | 0.00 | 0.00 | 0.00 | 87 | 1012.6 |
| 20260509140107 | 57 | 200 | 1.0 | 4.0 | 0.00 | 0.00 | 0.00 | 86 | 1012.5 |
| 20260509135513 | 57 | 203 | 2.0 | 4.0 | 0.00 | 0.00 | 0.00 | 85 | 1012.6 |
| 20260509135037 | 57 | 200 | 2.0 | 6.0 | 0.00 | 0.00 | 0.00 | 85 | 1012.7 |
| 20260509134507 | 57 | 198 | 2.0 | 6.0 | 0.00 | 0.00 | 0.00 | 85 | 1012.7 |
| 20260509134045 | 56 | 214 | 1.0 | 5.0 | 0.00 | 0.00 | 0.00 | 86 | 1012.6 |
| 20260509133522 | 56 | 186 | 3.0 | 5.0 | 0.00 | 0.00 | 0.00 | 85 | 1012.5 |
| 20260509133046 | 56 | 205 | 1.0 | 5.0 | 0.00 | 0.00 | 0.00 | 86 | 1012.4 |
| 20260509132516 | 56 | 207 | 2.0 | 5.0 | 0.00 | 0.00 | 0.00 | 86 | 1012.5 |
| 20260509132013 | 56 | 166 | 2.0 | 4.0 | 0.00 | 0.00 | 0.00 | 86 | 1012.6 |
| 20260509131553 | 56 | 179 | 2.0 | 4.0 | 0.00 | 0.00 | 0.00 | 86 | 1012.7 |
| 20260509131012 | 56 | 200 | 3.0 | 4.0 | 0.00 | 0.00 | 0.00 | 86 | 1012.6 |
| 20260509130539 | 55 | 206 | 1.0 | 5.0 | 0.00 | 0.00 | 0.00 | 86 | 1012.6 |
| 20260509130013 | 55 | 156 | 3.0 | 5.0 | 0.00 | 0.00 | 0.00 | 86 | 1012.7 |
| 20260509125538 | 55 | 162 | 2.0 | 4.0 | 0.00 | 0.00 | 0.00 | 86 | 1012.6 |
| 20260509125101 | 55 | 174 | 1.0 | 4.0 | 0.00 | 0.00 | 0.00 | 86 | 1012.7 |
| 20260509124513 | 54 | 360 | 1.0 | 3.0 | 0.00 | 0.00 | 0.00 | 86 | 1012.6 |
| 20260509124050 | 54 | 360 | 2.0 | 5.0 | 0.00 | 0.00 | 0.00 | 86 | 1012.7 |
| 20260509123525 | 54 | 360 | 1.0 | 3.0 | 0.00 | 0.00 | 0.00 | 86 | 1012.7 |
| 20260509123111 | 54 | 360 | 0.0 | 3.0 | 0.00 | 0.00 | 0.00 | 86 | 1012.8 |
| 20260509122517 | 54 | 360 | 2.0 | 3.0 | 0.00 | 0.00 | 0.00 | 85 | 1012.7 |
| 20260509122049 | 54 | 360 | 1.0 | 3.0 | 0.00 | 0.00 | 0.00 | 85 | 1012.8 |
| 20260509121541 | 53 | 360 | 1.0 | 2.0 | 0.00 | 0.00 | 0.00 | 86 | 1012.7 |
| 20260509121009 | 53 | 178 | 0.0 | 2.0 | 0.00 | 0.00 | 0.00 | 86 | 1012.7 |
| 20260509120534 | 53 | 360 | 0.0 | 2.0 | 0.00 | 0.00 | 0.00 | 86 | 1012.7 |
| 20260509120113 | 53 | 360 | 0.0 | 2.0 | 0.00 | 0.00 | 0.00 | 86 | 1012.7 |
| 20260509115535 | 53 | 360 | 0.0 | 3.0 | 0.00 | 0.00 | 0.00 | 86 | 1012.7 |
| 20260509115105 | 53 | 360 | 1.0 | 3.0 | 0.00 | 0.00 | 0.00 | 86 | 1012.7 |
| 20260509114533 | 53 | 360 | 0.0 | 2.0 | 0.00 | 0.00 | 0.00 | 86 | 1012.8 |
| 20260509114100 | 52 | 360 | 1.0 | 2.0 | 0.00 | 0.00 | 0.00 | 86 | 1012.7 |
| 20260509113515 | 52 | 360 | 0.0 | 2.0 | 0.00 | 0.00 | 0.00 | 87 | 1012.6 |
| 20260509113017 | 52 | 360 | 0.0 | 2.0 | 0.00 | 0.00 | 0.00 | 86 | 1012.6 |
| 20260509112601 | 52 | 360 | 1.0 | 2.0 | 0.00 | 0.00 | 0.00 | 87 | 1012.7 |
| 20260509112037 | 52 | 360 | 0.0 | 1.0 | 0.00 | 0.00 | 0.00 | 87 | 1012.6 |
| 20260509111608 | 52 | 360 | 0.0 | 1.0 | 0.00 | 0.00 | 0.00 | 87 | 1012.6 |
| 20260509111050 | 52 | 360 | 0.0 | 2.0 | 0.00 | 0.00 | 0.00 | 87 | 1012.5 |
| 20260509110526 | 52 | 360 | 0.0 | 2.0 | 0.00 | 0.00 | 0.00 | 87 | 1012.6 |
| 20260509110105 | 52 | 360 | 0.0 | 3.0 | 0.00 | 0.00 | 0.00 | 87 | 1012.6 |
| 20260509105515 | 51 | 360 | 1.0 | 3.0 | 0.00 | 0.00 | 0.00 | 89 | 1012.7 |
| 20260509105102 | 51 | 360 | 0.0 | 2.0 | 0.00 | 0.00 | 0.00 | 90 | 1012.6 |
| 20260509104533 | 50 | 360 | 0.0 | 2.0 | 0.00 | 0.00 | 0.00 | 91 | 1012.6 |
| 20260509104108 | 50 | 360 | 0.0 | 0.0 | 0.00 | 0.00 | 0.00 | 91 | 1012.5 |
| 20260509103515 | 50 | 133 | 0.0 | 0.0 | 0.00 | 0.00 | 0.00 | 91 | 1012.5 |
| 20260509103053 | 51 | 132 | 0.0 | 0.0 | 0.00 | 0.00 | 0.00 | 91 | 1012.4 |
| 20260509102534 | 51 | 133 | 0.0 | 0.0 | 0.00 | 0.00 | 0.00 | 91 | 1012.2 |
| 20260509102019 | 51 | 134 | 0.0 | 0.0 | 0.00 | 0.00 | 0.00 | 91 | 1012.3 |
| 20260509101508 | 51 | 132 | 0.0 | 0.0 | 0.00 | 0.00 | 0.00 | 91 | 1012.3 |
| 20260509101051 | 51 | 132 | 0.0 | 0.0 | 0.00 | 0.00 | 0.00 | 91 | 1012.4 |
| 20260509100501 | 51 | 134 | 0.0 | 0.0 | 0.00 | 0.00 | 0.00 | 91 | 1012.4 |
| 20260509100028 | 51 | 133 | 0.0 | 0.0 | 0.00 | 0.00 | 0.00 | 90 | 1012.5 |
| 20260509095504 | 51 | 134 | 0.0 | 0.0 | 0.00 | 0.00 | 0.00 | 90 | 1012.5 |
| 20260509095102 | 50 | 360 | 0.0 | 0.0 | 0.00 | 0.00 | 0.00 | 90 | 1012.5 |
| 20260509094541 | 50 | 133 | 0.0 | 0.0 | 0.00 | 0.00 | 0.00 | 90 | 1012.4 |
| 20260509094022 | 50 | 360 | 0.0 | 0.0 | 0.00 | 0.00 | 0.00 | 91 | 1012.4 |
| 20260509093551 | 50 | 134 | 0.0 | 0.0 | 0.00 | 0.00 | 0.00 | 91 | 1012.3 |